This is the latest recevied weather packets stored in our database for station/object S56VIL-11. If no packets are shown the sender has not sent any weather packets the latest 10 day(s).
| Time | Temp. | Humidity | Pressure | Rain* | Wind** | Luminosity | Snow |
|---|---|---|---|---|---|---|---|
| 1787836543 | 27.78° C | 63% | 1032.4 hPa | - | - | - | - |
| 1787835646 | 27.22° C | 63% | 1032.4 hPa | - | - | - | - |
| 1787834741 | 27.22° C | 64% | 1032.6 hPa | - | - | - | - |
| 1787833841 | 27.22° C | 64% | 1032.4 hPa | - | - | - | - |
| 1787832941 | 27.22° C | 63% | 1032.5 hPa | - | - | - | - |
| 1787832041 | 27.22° C | 64% | 1032.6 hPa | - | - | - | - |
| 1787831141 | 27.78° C | 64% | 1032.6 hPa | - | - | - | - |
| 1787830241 | 27.78° C | 64% | 1032.7 hPa | - | - | - | - |
| 1787829341 | 27.22° C | 65% | 1032.7 hPa | - | - | - | - |
| 1787828441 | 27.22° C | 64% | 1032.8 hPa | - | - | - | - |
| 1787827543 | 29.44° C | 64% | 1032.9 hPa | - | - | - | - |
| 1787826641 | 30.56° C | 64% | 1032.8 hPa | - | - | - | - |
| 1787825741 | 30° C | 64% | 1032.8 hPa | - | - | - | - |
| 1787824841 | 30° C | 64% | 1032.8 hPa | - | - | - | - |
| 1787823941 | 28.89° C | 65% | 1032.9 hPa | - | - | - | - |
| 1787823041 | 29.44° C | 64% | 1033 hPa | - | - | - | - |
| 1787822141 | 27.78° C | 64% | 1032.9 hPa | - | - | - | - |
| 1787821248 | 26.67° C | 65% | 1032.9 hPa | - | - | - | - |
| 1787820340 | 26.67° C | 65% | 1033 hPa | - | - | - | - |
| 1787819440 | 26.11° C | 65% | 1032.8 hPa | - | - | - | - |
| 1787818540 | 25° C | 65% | 1032.6 hPa | - | - | - | - |
| 1787817640 | 25° C | 65% | 1032.7 hPa | - | - | - | - |
| 1787816740 | 25° C | 65% | 1032.6 hPa | - | - | - | - |
| 1787815840 | 24.44° C | 65% | 1032.4 hPa | - | - | - | - |
| 1787814940 | 23.33° C | 65% | 1032.3 hPa | - | - | - | - |
* Rain since midnight (hover to see other rain measurements)
** Current wind speed in m/s (hover to see current wind gust speed)